Overview Statistics Trail Chart Weather Telemetry Raw packets
 

This is the latest recevied weather packets stored in our database for station/object KF0WJA. If no packets are shown the sender has not sent any weather packets the latest 10 day(s).

<< 75 76 77 78 79 80 81 >>
Time Temp. Humidity Pressure Rain* Wind** Luminosity Snow
1788123518 38.89° C 33% 1013.4 hPa 0 mm - 563 W/m² -
1788123217 39.44° C 33% 1013.3 hPa 0 mm - 585 W/m² -
1788122912 38.89° C 34% 1013.2 hPa 0 mm - 602 W/m² -
1788122611 39.44° C 34% 1013.2 hPa 0 mm - 627 W/m² -
1788122307 39.44° C 33% 1013.4 hPa 0 mm - 627 W/m² -
1788122003 39.44° C 34% 1013.4 hPa 0 mm - 645 W/m² -
1788121702 39.44° C 33% 1013.6 hPa 0 mm - 644 W/m² -
1788121398 38.89° C 36% 1013.6 hPa 0 mm - 635 W/m² -
1788121093 38.89° C 35% 1013.5 hPa 0 mm - 647 W/m² -
1788120787 39.44° C 34% 1013.6 hPa 0 mm - 633 W/m² -
1788120483 38.89° C 35% 1013.8 hPa 0 mm - 632 W/m² -
1788120181 39.44° C 35% 1013.9 hPa 0 mm - 635 W/m² -
1788119877 38.89° C 34% 1013.9 hPa 0 mm - 655 W/m² -
1788119577 39.44° C 33% 1013.9 hPa 0 mm - 672 W/m² -
1788119275 38.89° C 35% 1014.1 hPa 0 mm - 670 W/m² -
1788118970 38.89° C 34% 1014.2 hPa 0 mm - 661 W/m² -
1788118670 38.89° C 33% 1014.2 hPa 0 mm - 658 W/m² -
1788118364 38.89° C 35% 1014.4 hPa 0 mm - 649 W/m² -
1788118060 38.89° C 36% 1014.4 hPa 0 mm - 661 W/m² -
1788117760 39.44° C 34% 1014.4 hPa 0 mm - 672 W/m² -
1788117456 38.89° C 35% 1014.3 hPa 0 mm - 670 W/m² -
1788117155 38.33° C 36% 1014.2 hPa 0 mm - 674 W/m² -
1788116852 38.33° C 35% 1014.3 hPa 0 mm - 673 W/m² -
1788116552 37.78° C 35% 1014.6 hPa 0 mm - 669 W/m² -
1788116250 37.78° C 37% 1014.5 hPa 0 mm - 675 W/m² -

* Rain latest hour (hover to see other rain measurements)
** Current wind speed in m/s (hover to see current wind gust speed)